STARLINK-5014 (53926 NORAD) Tracking and Keplerian Element Data

This shows tracking and keplerian element data for the satellite.

Feedback or suggestion? Click here.




ElementValue
Catalog53926
NameSTARLINK-5014
Epoch Orbit130
Epoch Day324.91667824
Epoch Year2022
RAAN331.1307
Inclination53.2144
Eccentricity0.0003917
Argument of Perigee3.5425
Mean Anonmoly19.0068
Mean Motion15.73121526
Decay Rate0.00093003
L11 53926U 22119AS 22324.91667824 .00093003 00000+0 66177-3 0 9990
L22 53926 53.2144 331.1307 0003917 3.5425 19.0068 15.73121526 1304



Live tracking and technical data element details for STARLINK-5014 (NORAD 53926). STARLINK-5014 can be tracked NOW for your location showing map with azimuth and elevation plus other details from your city location.







IsCatalogInMostPopularTable: catalog: 53926, numindb: 1
Update: records affected: 1



GetName: 53926 STARLINK-5014

Hit Count: updated at: Fri, 09 Dec 2022 18:37:48 GMT